GW2364 Weather Reports


time (UTC)temp
C
wind
direction
speed
KPH
gust
KPH
rain 1hr
cm
rain 24hr
cm
rain mn
cm
humidity
%
barometer
mb
20260903000006 36 246 0.0 8.0 0.00 0.00 0.00 41 1008.7
20260902234504 37 235 1.6 6.4 0.00 0.00 0.00 40 1008.7
20260902233013 37 252 3.2 12.9 0.00 0.00 0.00 40 1008.8
20260902231505 37 84 0.0 11.3 0.00 0.00 0.00 38 1008.7
20260902230006 37 215 3.2 9.7 0.00 0.00 0.00 38 1008.6
20260902224506 37 258 1.6 12.9 0.00 0.00 0.00 39 1008.7
20260902223005 38 157 1.6 11.3 0.00 0.00 0.00 37 1008.7
20260902221504 38 180 3.2 11.3 0.00 0.00 0.00 37 1008.8
20260902220008 38 259 6.4 14.5 0.00 0.00 0.00 38 1008.9
20260902214509 37 232 1.6 11.3 0.00 0.00 0.00 40 1009.1
20260902213006 36 227 4.8 12.9 0.00 0.00 0.00 41 1009.2
20260902211504 36 132 4.8 19.3 0.00 0.00 0.00 41 1009.2
20260902210006 37 234 3.2 11.3 0.00 0.00 0.00 40 1009.3
20260902204504 37 105 1.6 11.3 0.00 0.00 0.00 40 1009.5
20260902203004 38 210 3.2 17.7 0.00 0.00 0.00 38 1009.6
20260902201509 38 90 3.2 11.3 0.00 0.00 0.00 40 1009.9
20260902200006 37 235 4.8 12.9 0.00 0.00 0.00 41 1010.0
20260902194504 36 36 1.6 6.4 0.00 0.00 0.00 43 1010.4
20260902193005 37 45 1.6 6.4 0.00 0.00 0.00 43 1010.6
20260902191511 36 5 1.6 14.5 0.00 0.00 0.00 42 1010.7
20260902190009 37 36 4.8 11.3 0.00 0.00 0.00 41 1010.9
20260902184503 37 298 0.0 6.4 0.00 0.00 0.00 41 1011.2
20260902183004 37 303 1.6 11.3 0.00 0.00 0.00 42 1011.3
20260902181504 37 241 3.2 11.3 0.00 0.00 0.00 41 1011.7
20260902180007 37 152 3.2 8.0 0.00 0.00 0.00 42 1012.1
20260902174506 36 184 1.6 12.9 0.00 0.00 0.00 44 1012.4
20260902173004 35 213 0.0 14.5 0.00 0.00 0.00 46 1012.7
20260902171504 35 242 1.6 12.9 0.00 0.00 0.00 47 1012.8
20260902170008 34 262 3.2 8.0 0.00 0.00 0.00 49 1013.0
20260902164510 34 302 3.2 12.9 0.00 0.00 0.00 51 1013.1
20260902163003 33 208 4.8 11.3 0.00 0.00 0.00 52 1013.2
20260902161504 33 314 1.6 11.3 0.00 0.00 0.00 55 1013.2
20260902160009 32 234 6.4 12.9 0.00 0.00 0.00 56 1013.3
20260902154503 32 246 6.4 11.3 0.00 0.00 0.00 58 1013.3
20260902153006 31 238 1.6 6.4 0.00 0.00 0.00 63 1013.4
20260902151503 30 229 1.6 12.9 0.00 0.00 0.00 67 1013.4
20260902150008 28 279 3.2 11.3 0.00 0.00 0.00 69 1013.3
20260902144503 28 261 3.2 9.7 0.00 0.00 0.00 72 1013.3
20260902143003 27 240 4.8 14.5 0.00 0.00 0.00 75 1013.4
20260902141505 27 306 3.2 9.7 0.00 0.00 0.00 75 1013.3
20260902140005 27 243 3.2 12.9 0.00 0.00 0.00 73 1013.5
20260902134504 27 233 1.6 8.0 0.00 0.00 0.00 75 1013.4
20260902133004 26 215 1.6 6.4 0.00 0.00 0.00 78 1013.4
20260902131503 25 232 3.2 6.4 0.00 0.00 0.00 81 1013.2
20260902130005 25 232 1.6 4.8 0.00 0.00 0.00 81 1013.0
20260902124503 24 232 0.0 3.2 0.00 0.00 0.00 81 1013.0
20260902123003 24 232 0.0 3.2 0.00 0.00 0.00 81 1012.9
20260902121504 25 232 1.6 4.8 0.00 0.00 0.00 81 1012.8
20260902120005 25 232 1.6 4.8 0.00 0.00 0.00 80 1012.7
20260902114503 24 232 0.0 6.4 0.00 0.00 0.00 80 1012.5
20260902113003 25 205 0.0 3.2 0.00 0.00 0.00 78 1012.4
20260902111502 25 171 0.0 3.2 0.00 0.00 0.00 78 1012.6
20260902110008 25 171 0.0 1.6 0.00 0.00 0.00 78 1012.6
20260902104502 25 171 1.6 3.2 0.00 0.00 0.00 78 1012.5
20260902103007 25 171 0.0 3.2 0.00 0.00 0.00 79 1012.5
20260902101503 25 171 1.6 3.2 0.00 0.00 0.00 78 1012.5
20260902100004 25 108 0.0 0.0 0.00 0.00 0.00 77 1012.4
20260902094504 25 108 0.0 0.0 0.00 0.00 0.00 78 1012.5
20260902093009 25 108 0.0 1.6 0.00 0.00 0.00 77 1012.4
20260902091502 25 108 0.0 1.6 0.00 0.00 0.00 77 1012.5
20260902090005 26 108 0.0 3.2 0.00 0.00 0.00 76 1012.6
20260902084505 26 108 0.0 3.2 0.00 0.00 0.00 76 1012.6
20260902083002 26 221 0.0 3.2 0.00 0.00 0.00 76 1012.6
20260902081503 26 221 0.0 1.6 0.00 0.00 0.00 75 1012.6
20260902080004 26 221 0.0 1.6 0.00 0.00 0.00 74 1012.5
20260902074502 26 221 0.0 1.6 0.00 0.00 0.00 74 1012.6
20260902073002 26 221 0.0 1.6 0.00 0.00 0.00 74 1012.6
20260902071503 27 221 0.0 4.8 0.00 0.00 0.00 72 1012.8
20260902070006 27 221 0.0 1.6 0.00 0.00 0.00 73 1012.7
20260902064503 27 221 0.0 1.6 0.00 0.00 0.00 72 1012.9
20260902063002 27 221 0.0 6.4 0.00 0.00 0.00 72 1012.6
20260902061505 27 184 0.0 3.2 0.00 0.00 0.00 72 1012.7
20260902060009 27 184 0.0 3.2 0.00 0.00 0.00 71 1012.8
20260902054505 28 109 0.0 3.2 0.00 0.00 0.00 71 1012.7
20260902053005 28 227 0.0 3.2 0.00 0.00 0.00 71 1012.7
20260902051505 28 115 0.0 4.8 0.00 0.00 0.00 70 1012.6
20260902050012 28 46 0.0 3.2 0.00 0.00 0.00 69 1012.7
20260902044504 29 132 0.0 4.8 0.00 0.00 0.00 68 1012.7
20260902043011 29 122 0.0 9.7 0.00 0.00 0.00 66 1012.7
20260902041504 30 56 1.6 11.3 0.00 0.00 0.00 65 1012.6
20260902040006 29 90 4.8 11.3 0.00 0.00 0.00 65 1012.6
20260902034504 29 75 1.6 4.8 0.00 0.00 0.00 63 1012.3
20260902033004 30 69 0.0 6.4 0.00 0.00 0.00 62 1012.2
20260902031504 30 78 1.6 4.8 0.00 0.00 0.00 62 1012.1
20260902030006 30 79 1.6 4.8 0.00 0.00 0.00 61 1011.9
20260902024504 30 92 1.6 3.2 0.00 0.00 0.00 60 1011.6
20260902023004 30 96 3.2 6.4 0.00 0.00 0.00 59 1011.3
20260902021512 31 101 0.0 4.8 0.00 0.00 0.00 57 1011.0
20260902020006 31 86 1.6 4.8 0.00 0.00 0.00 56 1011.0
20260902014505 32 95 3.2 14.5 0.00 0.00 0.00 54 1010.7
20260902013004 32 103 3.2 6.4 0.00 0.00 0.00 51 1010.4
20260902011504 32 81 1.6 3.2 0.00 0.00 0.00 50 1010.2
20260902010013 32 57 1.6 8.0 0.00 0.00 0.00 50 1010.2
20260902004507 33 93 0.0 4.8 0.00 0.00 0.00 49 1010.3
20260902003004 33 68 1.6 4.8 0.00 0.00 0.00 48 1010.6
20260902001504 34 77 3.2 9.7 0.00 0.00 0.00 47 1010.4